Weather History for Kremmling, CO

Change the Weather History Date:

Saturday, November 3, 2012

  Actual Average (KEGE) Record (KEGE)
Temperature  
Mean Temperature 35 °F -  
Max Temperature 55 °F 51 °F 68 °F (1978)
Min Temperature 15 °F 20 °F -1 °F (1991)
Degree Days  
Heating Degree Days 30    
Moisture  
Dew Point 16 °F    
Average Humidity 55    
Maximum Humidity 86    
Minimum Humidity 18    
Precipitation  
Precipitation 0.00 in - - ()
Sea Level Pressure  
Sea Level Pressure 30.28 in    
Wind  
Wind Speed 1 mph (NNW)    
Max Wind Speed 15 mph    
Max Gust Speed 20 mph    
Averages and records for this station are not official NWS values.
T = Trace of Precipitation, MM = Missing Value Source: NWS Daily Summary

Daily Weather History Graph

Daily Weather History Graph

Search for Another Location

Airport:

Trip Planner

Search our weather history database for the weather conditions in past years. The results will help you decide how hot, cold, wet, or windy it might be!

Date:

Astronomy

Nov. 03, 2012 Rise Set
Actual Time 7:37 AM MDT 5:59 PM MDT
Civil Twilight 7:09 AM MDT 6:28 PM MDT
Nautical Twilight 6:37 AM MDT 7:00 PM MDT
Astronomical Twilight 6:05 AM MDT 7:32 PM MDT
Moon 9:43 PM MDT (11/3) 11:43 AM MDT (11/3)
Length of Visible Light 11h 19m
Length of Day
10h 22m
Waning Gibbous, 80% of the Moon is Illuminated
Nov 3
Waning Gibbous
Nov 6
Last Quarter
Nov 13
New
Nov 20
First Quarter
Nov 28
Full

Hourly Weather History & Observations

Time (MDT) Temp. Windchill Dew Point Humidity Pressure Visibility Wind Dir Wind Speed Gust Speed Precip Events Conditions
12:15 AM 23.0 °F - 17.6 °F 80% 30.26 in - Calm Calm - N/A   Clear
12:35 AM 23.0 °F - 17.6 °F 80% 30.26 in - Calm Calm - N/A   Clear
12:55 AM 23.0 °F - 17.6 °F 80% 30.26 in - Calm Calm - N/A   Clear
1:15 AM 23.0 °F - 17.6 °F 80% 30.26 in - Calm Calm - N/A   Clear
1:35 AM 23.0 °F - 17.6 °F 80% 30.26 in - Calm Calm - N/A   Clear
2:15 AM 21.2 °F - 14.0 °F 74% 30.27 in - Calm Calm - N/A   Clear
2:35 AM 19.4 °F - 14.0 °F 80% 30.27 in - Calm Calm - N/A   Clear
2:55 AM 19.4 °F - 14.0 °F 80% 30.27 in - Calm Calm - N/A   Clear
3:15 AM 21.2 °F - 14.0 °F 74% 30.26 in - Calm Calm - N/A   Clear
3:35 AM 19.4 °F - 14.0 °F 80% 30.26 in - Calm Calm - N/A   Clear
3:54 AM 21.2 °F - 15.8 °F 80% 30.26 in - Calm Calm - N/A   Clear
4:14 AM 19.4 °F - 12.2 °F 74% 30.27 in - Calm Calm - N/A   Clear
4:35 AM 17.6 °F - 12.2 °F 79% 30.27 in - Calm Calm - N/A   Clear
4:55 AM 19.4 °F - 14.0 °F 80% 30.28 in - Calm Calm - N/A   Clear
5:15 AM 17.6 °F - 12.2 °F 79% 30.29 in - Calm Calm - N/A   Clear
5:35 AM 17.6 °F - 12.2 °F 79% 30.29 in - Calm Calm - N/A   Clear
5:55 AM 17.6 °F - 12.2 °F 79% 30.30 in - Calm Calm - N/A   Clear
6:15 AM 17.6 °F - 12.2 °F 79% 30.30 in - Calm Calm - N/A   Clear
6:35 AM 17.6 °F - 12.2 °F 79% 30.30 in - Calm Calm - N/A   Clear
6:54 AM 17.6 °F - 12.2 °F 79% 30.30 in - Calm Calm - N/A   Clear
7:15 AM 17.6 °F - 12.2 °F 79% 30.31 in - Calm Calm - N/A   Clear
7:35 AM 17.6 °F - 12.2 °F 79% 30.31 in - Calm Calm - N/A   Unknown
7:55 AM 15.8 °F - 12.2 °F 86% 30.32 in - Calm Calm - N/A   Unknown
8:15 AM 17.6 °F - 12.2 °F 79% 30.32 in - Calm Calm - N/A   Clear
8:35 AM 17.6 °F - 14.0 °F 86% 30.33 in - Calm Calm - N/A   Unknown
8:55 AM 21.2 °F - 15.8 °F 80% 30.33 in - Calm Calm - N/A   Clear
9:15 AM 23.0 °F - 17.6 °F 80% 30.33 in - Calm Calm - N/A   Clear
9:34 AM 23.0 °F - 17.6 °F 80% 30.33 in - Calm Calm - N/A   Clear
9:55 AM 28.4 °F - 19.4 °F 69% 30.33 in - Calm Calm - N/A   Clear
10:15 AM 30.2 °F - 19.4 °F 64% 30.33 in - Calm Calm - N/A   Clear
10:34 AM 32.0 °F - 21.2 °F 64% 30.33 in - Calm Calm - N/A   Clear
10:54 AM 33.8 °F - 21.2 °F 60% 30.32 in - Calm Calm - N/A   Clear
11:14 AM 35.6 °F - 21.2 °F 56% 30.32 in - Calm Calm - N/A   Clear
11:34 AM 37.4 °F - 21.2 °F 52% 30.32 in - Calm Calm - N/A   Clear
11:55 AM 37.4 °F - 19.4 °F 48% 30.31 in - Calm Calm - N/A   Clear
12:15 PM 41.0 °F - 21.2 °F 45% 30.30 in - Calm Calm - N/A   Clear
12:35 PM 42.8 °F - 19.4 °F 39% 30.29 in - Calm Calm - N/A   Clear
12:55 PM 48.2 °F - 19.4 °F 32% 30.27 in - Calm Calm - N/A   Clear
1:15 PM 50.0 °F - 19.4 °F 30% 30.26 in - Calm Calm - N/A   Clear
1:35 PM 51.8 °F - 17.6 °F 26% 30.25 in - Calm Calm - N/A   Clear
1:55 PM 53.6 °F - 17.6 °F 24% 30.24 in - Calm Calm - N/A   Clear
2:14 PM 53.6 °F - 15.8 °F 22% 30.24 in - Calm Calm - N/A   Clear
2:34 PM 55.4 °F - 15.8 °F 21% 30.23 in - WNW 6.9 mph - N/A   Clear
2:54 PM 53.6 °F - 14.0 °F 21% 30.22 in - Calm Calm - N/A   Clear
3:15 PM 55.4 °F - 12.2 °F 18% 30.22 in - Calm Calm - N/A   Scattered Clouds
3:34 PM 55.4 °F - 12.2 °F 18% 30.22 in - Calm Calm - N/A   Clear
3:54 PM 55.4 °F - 14.0 °F 20% 30.22 in - Calm Calm - N/A   Clear
4:14 PM 55.4 °F - 14.0 °F 20% 30.22 in - West 9.2 mph - N/A   Clear
4:34 PM 55.4 °F - 14.0 °F 20% 30.22 in - NW 6.9 mph - N/A   Clear
4:54 PM 53.6 °F - 14.0 °F 21% 30.22 in - NW 9.2 mph - N/A   Clear
5:15 PM 53.6 °F - 17.6 °F 24% 30.23 in - NNW 10.4 mph 16.1 mph N/A   Clear
5:35 PM 51.8 °F - 15.8 °F 24% 30.24 in - NNW 12.7 mph - N/A   Clear
5:55 PM 50.0 °F - 15.8 °F 26% 30.24 in - NNW 13.8 mph - N/A   Clear
6:15 PM 50.0 °F - 17.6 °F 28% 30.24 in - NNW 10.4 mph 18.4 mph N/A   Clear
6:34 PM 46.4 °F 40.1 °F 14.0 °F 27% 30.25 in - NNW 15.0 mph 19.6 mph N/A   Clear
6:55 PM 46.4 °F 41.9 °F 15.8 °F 29% 30.26 in - NW 9.2 mph 17.3 mph N/A   Clear
7:15 PM 42.8 °F 41.1 °F 15.8 °F 34% 30.27 in - SSE 3.5 mph - N/A   Clear
7:35 PM 42.8 °F - 15.8 °F 34% 30.28 in - Calm Calm - N/A   Clear
7:55 PM 42.8 °F - 14.0 °F 31% 30.29 in - Calm Calm - N/A   Clear
8:15 PM 41.0 °F - 14.0 °F 33% 30.29 in - Calm Calm - N/A   Clear
8:35 PM 39.2 °F 35.9 °F 14.0 °F 36% 30.30 in - NE 4.6 mph - N/A   Clear
8:55 PM 35.6 °F 32.8 °F 14.0 °F 41% 30.30 in - East 3.5 mph - N/A   Clear
9:15 PM 33.8 °F - 15.8 °F 48% 30.31 in - Calm Calm - N/A   Clear
9:35 PM 32.0 °F - 17.6 °F 55% 30.32 in - Calm Calm - N/A   Clear
9:55 PM 32.0 °F - 17.6 °F 55% 30.32 in - Calm Calm - N/A   Clear
10:14 PM 30.2 °F - 15.8 °F 55% 30.33 in - Calm Calm - N/A   Clear
10:35 PM 30.2 °F - 17.6 °F 60% 30.33 in - Calm Calm - N/A   Clear
10:55 PM 30.2 °F - 17.6 °F 60% 30.33 in - Calm Calm - N/A   Clear
11:15 PM 30.2 °F - 17.6 °F 60% 30.33 in - Calm Calm - N/A   Clear
11:35 PM 28.4 °F - 17.6 °F 64% 30.34 in - Calm Calm - N/A   Clear
11:55 PM 28.4 °F - 17.6 °F 64% 30.34 in - Calm Calm - N/A   Clear